This is the latest recevied weather packets stored in our database for station/object KM4NDN. If no packets are shown the sender has not sent any weather packets the latest 10 day(s).
| Time | Temp. | Humidity | Pressure | Rain* | Wind** | Luminosity | Snow |
|---|---|---|---|---|---|---|---|
| 1777690305 | 4.44° C | 88% | 1014.2 hPa | 0 mm | - | 0 W/m² | - |
| 1777690002 | 4.44° C | 88% | 1014.3 hPa | 0 mm | - | 0 W/m² | - |
| 1777689700 | 4.44° C | 88% | 1014.1 hPa | 0 mm | - | 0 W/m² | - |
| 1777689398 | 5° C | 87% | 1014.2 hPa | 0 mm | - | 0 W/m² | - |
| 1777689095 | 5° C | 86% | 1014.2 hPa | 0 mm | - | 0 W/m² | - |
| 1777688792 | 5° C | 85% | 1014.1 hPa | 1.78 mm | - | 0 W/m² | - |
| 1777688489 | 5° C | 84% | 1014.3 hPa | 4.83 mm | - | 0 W/m² | - |
| 1777688187 | 5° C | 85% | 1014.4 hPa | 4.32 mm | - | 0 W/m² | - |
| 1777687883 | 5° C | 84% | 1014.4 hPa | 3.05 mm | - | 0 W/m² | - |
| 1777687581 | 5° C | 86% | 1014.5 hPa | 3.56 mm | - | 0 W/m² | - |
| 1777687278 | 5.56° C | 87% | 1014.7 hPa | 1.78 mm | - | 0 W/m² | - |
| 1777686976 | 5.56° C | 88% | 1014.7 hPa | 0 mm | - | 0 W/m² | - |
| 1777686672 | 5.56° C | 89% | 1014.3 hPa | 0 mm | - | 0 W/m² | - |
| 1777686369 | 5.56° C | 89% | 1014.5 hPa | 1.27 mm | - | 0 W/m² | - |
| 1777686066 | 5.56° C | 89% | 1014.3 hPa | 1.27 mm | - | 0 W/m² | - |
| 1777685761 | 5.56° C | 88% | 1014.2 hPa | 1.78 mm | - | 0 W/m² | - |
| 1777685458 | 5.56° C | 87% | 1014.1 hPa | 3.05 mm | - | 0 W/m² | - |
| 1777685155 | 5.56° C | 86% | 1014.2 hPa | 3.05 mm | - | 0 W/m² | - |
| 1777684853 | 5.56° C | 84% | 1014.1 hPa | 3.05 mm | - | 0 W/m² | - |
| 1777684549 | 6.11° C | 80% | 1014.1 hPa | 0 mm | - | 0 W/m² | - |
| 1777684246 | 6.67° C | 81% | 1013.7 hPa | 3.05 mm | - | 0 W/m² | - |
| 1777683943 | 6.67° C | 81% | 1013.8 hPa | 3.05 mm | - | 0 W/m² | - |
| 1777683639 | 6.67° C | 82% | 1013.8 hPa | 1.78 mm | - | 0 W/m² | - |
| 1777683337 | 7.22° C | 79% | 1013.8 hPa | 0 mm | - | 0 W/m² | - |
| 1777683035 | 7.22° C | 79% | 1013.6 hPa | 0 mm | - | 0 W/m² | - |
* Rain latest hour (hover to see other rain measurements)
** Current wind speed in m/s (hover to see current wind gust speed)